Location: Fort Worth, Tx
(32.7431°N, 97.3695°W)
Time: 10:48:46
(UTC-05:00)

Vanguard 1 Rocket - All Passes

Search period start: 29 January 2023 00:00
Search period end: 08 February 2023 00:00
Orbit: 650 x 4225 km, 34.3° (Epoch: 29 January)

Date Brightness Start Highest point End Pass type
(mag) Time Alt. Az. Time Alt. Az. Time Alt. Az.
29 Jan - 11:12:31 10° SSE 11:16:58 14° ESE 11:22:43 10° E daylight
29 Jan - 13:31:16 10° SW 13:41:14 60° SE 14:00:41 10° ENE daylight
29 Jan - 15:55:59 10° W 16:10:43 87° N 16:36:31 10° E daylight
29 Jan - 18:23:29 10° W 18:44:19 88° SSW 19:10:48 10° ESE daylight
29 Jan - 20:53:32 10° WNW 21:17:33 57° SW 21:39:32 10° SE visible
29 Jan - 23:30:37 10° W 23:46:43 21° SW 00:00:07 10° SSW visible
30 Jan - 12:21:32 10° SSW 12:29:33 39° SE 12:44:03 10° ENE daylight
30 Jan - 14:44:34 10° WSW 14:56:32 85° SSE 15:19:44 10° ENE daylight
30 Jan - 17:10:52 10° W 17:28:30 87° N 17:55:24 10° E daylight
30 Jan - 19:39:25 10° WNW 20:02:18 71° SSW 20:27:01 10° SE visible
30 Jan - 22:12:03 10° W 22:33:25 35° SW 22:51:42 10° S visible
31 Jan - 11:13:12 10° S 11:18:46 20° SE 11:26:57 10° E daylight
31 Jan - 13:33:48 10° SW 13:43:31 69° SSE 14:03:01 10° ENE daylight
31 Jan - 15:58:51 10° W 16:13:20 85° N 16:38:59 10° E daylight
31 Jan - 18:26:12 10° WNW 18:46:37 83° SSW 19:13:06 10° ESE daylight
31 Jan - 20:56:16 10° WNW 21:19:14 49° SW 21:41:04 10° SSE visible
31 Jan - 23:36:19 10° W 23:48:14 15° SW 23:58:50 10° SSW visible
01 Feb - 12:23:45 10° SSW 12:31:38 47° SE 12:46:38 10° ENE daylight
01 Feb - 14:47:23 10° WSW 14:59:07 90° NNE 15:22:06 10° E daylight
01 Feb - 17:13:41 10° W 17:31:01 89° N 17:57:50 10° ESE daylight
01 Feb - 19:42:04 10° WNW 20:04:15 64° SSW 20:28:52 10° SE visible
01 Feb - 22:15:36 10° W 22:34:55 28° SW 22:52:14 10° S visible
02 Feb - 11:14:42 10° S 11:20:42 26° SE 11:30:20 10° E daylight
02 Feb - 13:36:30 10° WSW 13:45:59 78° SSE 14:05:20 10° ENE daylight
02 Feb - 16:01:44 10° W 16:15:59 85° N 16:41:27 10° E daylight
02 Feb - 18:28:54 10° WNW 18:48:50 76° SSW 19:15:12 10° ESE daylight
02 Feb - 20:59:13 10° WNW 21:20:53 42° SW 21:42:14 10° SSE visible
02 Feb - 23:48:19 10° WSW 23:49:55 10° SW 23:51:29 10° SW visible
03 Feb - 10:09:57 10° SE 10:10:20 10° SE 10:10:44 10° ESE daylight
03 Feb - 12:26:12 10° SW 12:33:54 57° SSE 12:49:06 10° ENE daylight
03 Feb - 14:50:17 10° W 15:01:48 86° N 15:24:31 10° E daylight
03 Feb - 17:16:29 10° WNW 17:33:29 87° SSW 18:00:09 10° ESE daylight
03 Feb - 19:44:48 10° WNW 20:06:08 56° SW 20:30:26 10° SE visible
03 Feb - 22:19:57 10° W 22:36:31 22° SW 22:52:00 10° S visible
04 Feb - 11:16:39 10° SSW 11:22:47 34° SE 11:33:18 10° ENE daylight
04 Feb - 13:39:18 10° WSW 13:48:35 85° SSE 14:07:42 10° ENE daylight
04 Feb - 16:04:37 10° W 16:18:37 87° N 16:43:53 10° E daylight
04 Feb - 18:31:38 10° WNW 18:50:59 69° SSW 19:17:05 10° SE daylight
04 Feb - 21:02:28 10° W 21:22:33 35° SW 21:42:59 10° SSE visible
05 Feb - 10:08:42 10° SSE 10:12:19 15° SE 10:17:03 10° E daylight
05 Feb - 12:28:49 10° SW 12:36:20 68° SSE 12:51:31 10° ENE daylight
05 Feb - 14:53:12 10° W 15:04:31 85° N 15:26:57 10° E daylight
05 Feb - 17:19:16 10° WNW 17:35:53 81° SSW 18:02:17 10° ESE daylight
05 Feb - 19:47:42 10° WNW 20:07:59 48° SW 20:31:41 10° SSE visible
05 Feb - 22:25:45 10° W 22:38:15 16° SW 22:50:23 10° SSW visible
06 Feb - 11:18:55 10° SSW 11:25:00 43° SE 11:36:02 10° ENE daylight
06 Feb - 13:42:11 10° W 13:51:17 89° N 14:10:06 10° E daylight
06 Feb - 16:07:29 10° W 16:21:13 90° WSW 16:46:13 10° ESE daylight
06 Feb - 18:34:24 10° WNW 18:53:05 61° SSW 19:18:41 10° SE daylight
06 Feb - 21:06:13 10° W 21:24:17 28° SW 21:43:09 10° S visible
07 Feb - 10:10:01 10° S 10:14:25 21° SE 10:20:46 10° E daylight
07 Feb - 12:31:33 10° WSW 12:38:55 78° SSE 12:53:56 10° ENE daylight
07 Feb - 14:56:07 10° W 15:07:15 85° N 15:29:24 10° E daylight
07 Feb - 17:22:03 10° WNW 17:38:13 74° SSW 18:04:13 10° SE daylight
07 Feb - 19:50:48 10° W 20:09:52 40° SW 20:32:32 10° SSE visible
07 Feb - 22:36:51 10° WSW 22:40:13 10° SW 22:43:34 10° SW visible
